Regional Weather Roundup
Issued by NWS Boston, MA

Home | Current Version | Previous Version | Text Only | Print | Product List | Glossary On
Versions: 1 2 3 4 5 6 7 8 9 10 11 12 13 14 15 16 17 18 19 20 21 22 23 24 25 26 27 28 29 30 31 32 33 34 35 36 37 38 39 40 41 42 43 44 45 46 47 48 49 50
524
ASUS41 KBOX 230310
RWRBOX

REGIONAL WEATHER ROUNDUP
NATIONAL WEATHER SERVICE BOSTON/NORTON MA
1100 PM EDT TUE MAY 22 2018

NOTE:  "FAIR" INDICATES FEW OR NO CLOUDS BELOW 12,000 FEET WITH NO
SIGNIFICANT WEATHER AND/OR OBSTRUCTIONS TO VISIBILITY.

MAZALL-230400-
EASTERN MASSACHUSETTS

CITY           SKY/WX    TMP DP  RH WIND       PRES   REMARKS
BOSTON         CLOUDY    54  50  86 S13       29.97F
BEVERLY        CLOUDY    56  48  74 S9        29.95F
LAWRENCE       MOCLDY    59  47  64 S9        29.96F
BEDFORD        CLOUDY    55  50  83 S7        29.95F
BLUE HILL        N/A     51  50  96 S13       29.96F
NORWOOD        CLOUDY    56  53  90 CALM      29.98F
MARSHFIELD     DRIZZLE   54  52  94 S5        29.99F
PLYMOUTH       CLOUDY    53  51  93 S3        29.99F
TAUNTON        CLOUDY    54  51  90 S3        29.98F
NEW BEDFORD    CLOUDY    53  53 100 S6        29.98F
$$

MAZALL-230400-
CAPE COD AND THE ISLANDS

CITY           SKY/WX    TMP DP  RH WIND       PRES   REMARKS
FALMOUTH       CLOUDY    54  50  87 S8        30.01F
HYANNIS        CLOUDY    55  48  77 S8        29.99F
CHATHAM        CLOUDY    55  53  93 VRB6      30.02F
PROVINCETOWN   CLOUDY    52  49  89 S5        30.00F
NANTUCKET      CLOUDY    52  52 100 SE5       30.00F
MARTHAS VNYRD  CLOUDY    54  50  86 CALM      29.99F
$$

MAZALL-230400-
CENTRAL AND WESTERN MASSACHUSETTS

CITY           SKY/WX    TMP DP  RH WIND       PRES   REMARKS
WORCESTER      CLOUDY    51  49  92 SW12      29.96F
FITCHBURG      CLOUDY    55  51  86 S6        29.96F
ORANGE         CLOUDY    54  51  90 S6        29.97S
SPRINGFIELD    CLOUDY    55  52  88 S7        29.96F
WESTFIELD      CLOUDY    55  54  96 S8        29.96F
NORTH ADAMS    CLOUDY    57  51  80 VRB5      29.94F
PITTSFIELD     CLOUDY    55  51  86 CALM      29.94F
$$

RIZALL-230400-
RHODE ISLAND

CITY           SKY/WX    TMP DP  RH WIND       PRES   REMARKS
PROVIDENCE     CLOUDY    53  51  93 S7        29.99F
NEWPORT        CLOUDY    53  52  96 S3        29.99F
BLOCK ISLAND   CLOUDY    53  53 100 CALM      30.00F
SMITHFIELD     CLOUDY    52  51  97 MISG      29.98F
WESTERLY       CLOUDY    54  54 100 S3        30.00F
$$

CTZALL-230400-
CONNECTICUT

CITY           SKY/WX    TMP DP  RH WIND       PRES   REMARKS
BRADLEY INTL   CLOUDY    55  54  96 S9        29.98S
HARTFORD       CLOUDY    56  54  93 S8        29.97F
BRIDGEPORT     CLOUDY    56  54  93 E3        29.99F
DANBURY        CLOUDY    54  53  97 CALM      30.00F
GROTON         CLOUDY    53  53 100 SE6       29.98F
NEW HAVEN      CLOUDY    56  54  93 CALM      29.99F
CHESTER        CLOUDY    54  54 100 CALM      29.99F
MERIDEN        CLOUDY    55  53  93 S3        29.98F
WILLIMANTIC    CLOUDY    54  52  93 S7        29.99F
OXFORD         CLOUDY    53  53 100 CALM      29.99F FOG
$$

MEZ002-015-021-024-NHZ003-005-008-011-012-014-VTZ005-008-230400-
NORTHERN NEW ENGLAND

CITY           SKY/WX    TMP DP  RH WIND       PRES   REMARKS
PORTLAND ME    CLOUDY    56  53  90 CALM      29.94F
BANGOR ME      CLOUDY    56  52  86 S9        29.92F
CONCORD NH     CLOUDY    55  50  83 S7        29.94F
MANCHESTER NH  CLOUDY    59  48  67 S8        29.93F
NASHUA NH      CLOUDY    56  50  80 S5        29.95F
PORTSMOUTH NH  CLOUDY    55  49  78 S7        29.93F
JAFFREY NH     CLOUDY    53  50  89 SW8       29.95F
KEENE NH       NOT AVBL
BURLINGTON VT  CLOUDY    58  55  90 S10       29.87S
MT. WASHINGTON NOT AVBL
$$

NYZ052-076-230400-
EASTERN NEW YORK

CITY           SKY/WX    TMP DP  RH WIND       PRES   REMARKS
ALBANY         LGT RAIN  57  51  80 S12       29.92F
NEW YORK CITY  CLOUDY    58  55  90 E3        29.98F
$$

ANZALL-230400-
MARINE OBSERVATIONS

STATION/POSITION TIME  TEMP    WIND        PRES    VSBY  WAVE
                       AIR SEA DIR/SP/G                  HT/PER
                 (UTC) (F)     (DEG/KT/KT) (MB)    (MI)  (FT/S)
BOSTON BUOY      0250   54 54  170/  8/ 10 1015.4F         1
BUZZARDS BAY     0200   53     180/  6/  7 1016.9F
NANTUCKET SOUND  0250   54 55  200/ 10/ 12 1015.8F         1/ 3
MASS BAY-STELLWA NOT AVBL
ISLE OF SHOALS   0200   56     210/ 13/ 14 1014.5F
S OF BLOCK IS    0243      53                N/A           2/ 8
$$

......................KEY.........................
  SKY/WX - SKY CONDITION/PRESENT WEATHER
  TMP    - TEMPERATURE IN FAHRENHEIT
  DWPT   - DEWPOINT IN FAHRENHEIT
  RH     - RELATIVE HUMIDITY IN PERCENT
  WIND   - DIRECTION AND SPEED IN MPH
  PRES   - MEAN SEA LEVEL PRESSURE IN INCHES OF HG
  WCI    - WIND CHILL INDEX
  VSB    - VISIBILITY IN MILES
  HX     - HEAT INDEX
  TC     - TEMPERATURE IN CELSIUS
  VRB    - VARIABLE WIND DIRECTION
  N/A    - NOT AVAILABLE




USA.gov is the U.S. government's official web portal to all federal, state and local government web resources and services.